Total_Precipitation_Accumulation
0.00 0.00 0.00 0.00 0.00 0.00 0.00 0.00 0.00 0.05 0.11 0.16 0.13 0.21 0.19 0.22 0.84 1.37 1.13 1.69 2.00 1.20 1.00 0.81 0.68 0.22 0.15 0.32 0.11 0.04 0.04 0.04 0.02 0.02 0.03 0.16 0.20 0.20 0.27 0.46 0.44 0.63 0.62 0.46 0.33 0.47 0.77 0.80 0.61
0.00 0.00 0.00 0.00 0.00 0.00 0.00 0.00 0.02 0.10 0.36 0.55 0.37 0.34 0.25 0.35 0.64 1.01 1.03 1.30 1.52 0.95 1.22 0.91 1.05 1.11 0.52 0.42 0.21 0.14 0.07 0.02 0.01 0.11 0.13 0.31 0.23 0.35 0.88 1.14 1.05 0.89 0.81 0.55 0.45 0.49 1.36 1.05 0.85
0.00 0.00 0.00 0.00 0.00 0.00 0.00 0.01 0.02 0.05 0.21 0.23 0.24 0.27 0.36 0.47 0.46 0.64 0.76 0.64 0.98 0.93 0.59 0.95 1.10 0.97 0.78 0.45 0.26 0.41 0.46 0.32 0.07 0.08 0.27 0.43 0.64 1.40 2.37 2.61 1.59 1.69 1.57 1.07 0.83 0.67 1.01 1.19 0.84
0.00 0.00 0.00 0.00 0.00 0.00 0.00 0.00 0.02 0.08 0.14 0.18 0.20 0.67 0.40 0.49 0.59 0.73 0.75 0.90 1.58 1.21 1.41 2.06 1.83 1.54 0.85 0.62 0.82 1.07 1.06 0.81 0.56 0.49 0.70 0.99 1.50 2.44 2.40 1.57 1.37 1.77 2.98 1.58 1.13 0.66 0.39 0.30 0.59
0.00 0.00 0.00 0.00 0.00 0.01 0.01 0.05 0.18 0.22 0.21 0.51 0.22 0.70 0.86 0.43 0.35 0.62 1.26 2.27 3.38 2.60 2.46 3.18 4.32 3.84 2.91 1.91 1.41 1.43 1.64 1.34 1.37 1.76 1.82 1.86 1.84 2.50 1.41 0.69 1.06 2.43 2.33 1.06 0.93 0.56 0.32 0.45 0.22
0.00 0.00 0.00 0.00 0.00 0.01 0.04 0.16 0.24 0.32 0.21 0.26 0.33 0.61 0.69 0.32 0.40 0.80 1.81 3.39 6.23 6.22 5.28 5.61 6.69 5.82 4.58 3.53 2.32 2.32 2.14 1.88 1.91 1.66 2.13 2.46 1.35 1.12 0.77 0.42 0.44 0.62 0.55 0.56 0.47 0.22 0.27 0.43 0.28
0.00 0.00 0.00 0.00 0.00 0.00 0.04 0.30 0.47 0.35 0.16 0.20 0.22 0.29 0.93 0.71 0.64 1.36 1.46 2.44 2.54 4.44 5.86 6.89 7.53 8.34 7.50 4.24 3.28 3.30 3.37 2.92 2.39 2.16 1.95 2.16 1.62 1.25 0.97 0.45 0.32 0.24 0.17 0.30 0.37 0.28 0.36 0.41 0.43
0.00 0.00 0.00 0.00 0.00 0.03 0.10 0.11 0.15 0.08 0.10 0.21 0.16 0.80 1.24 1.02 0.64 0.85 1.08 1.79 2.04 2.47 3.24 3.59 3.73 7.19 11.79 7.99 5.03 4.14 3.79 3.59 2.59 2.39 1.76 1.31 1.54 1.54 1.39 0.58 0.28 0.23 0.16 0.31 0.56 0.65 0.70 0.50 0.52
0.00 0.00 0.00 0.01 0.02 0.18 0.25 0.17 0.26 0.11 0.01 0.04 0.21 1.07 0.42 0.22 0.31 0.49 0.93 1.88 2.77 2.72 2.37 1.88 2.60 3.39 5.97 9.68 6.53 5.18 4.21 2.78 2.60 2.23 1.68 1.18 0.95 0.89 0.83 0.48 0.31 0.27 0.27 0.45 0.76 0.73 0.80 0.98 0.68
0.00 0.00 0.00 0.03 0.08 0.25 0.33 0.04 0.18 0.07 0.03 0.19 0.63 1.02 0.34 0.21 0.24 0.38 0.89 1.51 1.86 1.93 2.26 1.84 1.28 1.36 2.04 4.47 4.27 4.57 4.59 2.74 2.18 1.79 1.29 1.13 0.94 0.55 0.40 0.29 0.26 0.42 0.37 0.42 0.49 0.70 0.86 0.78 0.38
0.00 0.00 0.00 0.00 0.06 0.10 0.29 0.01 0.05 0.03 0.06 0.42 0.46 0.60 0.36 0.34 0.35 0.47 0.59 0.83 0.88 1.33 1.64 1.27 1.16 0.94 1.13 2.23 1.95 2.41 3.15 3.40 2.31 1.98 1.24 1.23 0.85 0.53 0.50 0.30 0.31 0.63 0.42 0.18 0.23 0.38 0.47 0.44 0.41
0.00 0.00 0.00 0.00 0.00 0.00 0.00 0.07 0.15 0.09 0.10 0.21 0.45 0.47 0.33 0.41 0.53 0.49 0.64 0.48 0.50 0.70 0.89 0.91 0.51 0.66 1.01 1.01 1.24 1.52 1.52 3.13 2.89 2.20 1.65 1.34 0.86 0.39 0.33 0.23 0.24 0.23 0.40 0.20 0.14 0.19 0.26 0.37 0.48
0.00 0.00 0.00 0.00 0.01 0.00 0.01 0.09 0.11 0.01 0.05 0.22 0.39 0.26 0.25 0.29 0.59 1.26 0.48 0.53 0.77 0.73 0.82 0.81 0.67 0.64 0.58 0.40 0.53 1.23 1.01 1.78 2.85 2.27 1.79 1.31 0.79 0.35 0.19 0.18 0.22 0.16 0.25 0.33 0.30 0.23 0.30 0.39 0.52
0.00 0.00 0.00 0.00 0.00 0.00 0.00 0.18 0.02 0.11 0.13 0.30 0.94 0.29 0.16 0.19 0.16 0.42 0.54 0.43 0.73 0.72 0.90 0.66 0.63 0.65 0.53 0.38 0.39 0.87 0.88 1.01 2.12 1.75 1.25 1.34 0.66 0.30 0.25 0.27 0.18 0.22 0.23 0.25 0.44 0.41 0.36 0.37 0.38
0.00 0.00 0.00 0.04 0.02 0.00 0.02 0.06 0.02 0.16 0.27 0.40 0.34 0.16 0.04 0.04 0.11 0.15 0.28 0.19 0.27 0.53 0.60 0.47 0.69 0.73 0.69 0.48 0.55 0.74 0.84 0.89 1.38 1.14 1.14 1.37 0.72 0.48 0.39 0.32 0.27 0.18 0.20 0.19 0.22 0.36 0.63 0.70 0.55
0.00 0.00 0.00 0.05 0.01 0.00 0.01 0.13 0.25 0.31 0.13 0.33 0.47 0.10 0.03 0.00 0.02 0.03 0.04 0.05 0.16 0.20 0.44 0.64 0.86 1.18 1.11 0.46 0.58 0.67 0.72 0.80 1.10 0.91 1.01 1.41 0.78 0.51 0.38 0.32 0.31 0.26 0.18 0.16 0.12 0.13 0.32 0.52 0.46
0.00 0.00 0.00 0.00 0.00 0.00 0.00 0.00 0.03 0.15 0.27 0.39 0.29 0.04 0.00 0.00 0.01 0.02 0.02 0.02 0.08 0.18 0.30 0.59 0.92 1.09 1.33 1.20 1.45 1.22 0.87 0.75 0.84 0.76 0.87 1.49 0.99 0.73 0.38 0.27 0.28 0.27 0.18 0.12 0.12 0.13 0.11 0.21 0.28
0.00 0.00 0.00 0.00 0.00 0.00 0.00 0.00 0.00 0.02 0.06 0.06 0.05 0.02 0.01 0.00 0.00 0.00 0.01 0.03 0.04 0.07 0.29 0.67 1.07 1.58 2.74 1.92 1.10 0.63 0.64 0.69 0.72 0.82 0.84 1.41 0.92 0.86 0.88 0.48 0.37 0.36 0.23 0.13 0.11 0.10 0.17 0.11 0.16
0.00 0.00 0.00 0.00 0.00 0.00 0.00 0.00 0.00 0.00 0.01 0.03 0.04 0.03 0.01 0.00 0.00 0.01 0.01 0.04 0.03 0.16 0.49 0.75 0.83 0.94 0.82 0.38 0.34 0.35 0.49 0.73 0.84 0.90 0.74 1.37 1.14 0.73 0.97 1.06 0.55 0.50 0.30 0.16 0.13 0.20 0.18 0.18 0.19
0.00 0.00 0.00 0.00 0.00 0.00 0.00 0.00 0.00 0.00 0.00 0.00 0.01 0.01 0.00 0.00 0.00 0.01 0.05 0.11 0.18 0.33 0.37 0.23 0.09 0.06 0.10 0.11 0.15 0.17 0.21 0.45 0.55 1.15 0.83 1.00 1.15 0.50 0.49 0.79 0.74 0.59 0.38 0.34 0.21 0.19 0.16 0.16 0.22
0.00 0.00 0.00 0.00 0.00 0.00 0.00 0.00 0.00 0.00 0.01 0.01 0.01 0.00 0.00 0.00 0.00 0.04 0.06 0.07 0.06 0.04 0.10 0.05 0.04 0.03 0.03 0.06 0.09 0.17 0.18 0.31 0.55 1.21 1.27 0.87 1.13 0.68 0.38 0.56 0.70 0.69 0.55 0.44 0.25 0.23 0.21 0.15 0.16
0.01 0.00 0.00 0.00 0.00 0.02 0.00 0.00 0.01 0.00 0.00 0.00 0.01 0.01 0.01 0.00 0.01 0.01 0.01 0.02 0.01 0.07 0.03 0.06 0.10 0.05 0.05 0.03 0.04 0.07 0.10 0.15 0.28 0.62 0.88 0.95 0.95 0.83 0.58 0.61 0.67 0.76 0.56 0.44 0.31 0.32 0.32 0.38 0.26
0.01 0.00 0.00 0.00 0.00 0.01 0.02 0.00 0.02 0.00 0.00 0.00 0.00 0.01 0.01 0.01 0.01 0.05 0.10 0.04 0.03 0.04 0.06 0.10 0.09 0.11 0.12 0.07 0.08 0.09 0.10 0.18 0.21 0.39 0.89 1.02 1.09 1.27 1.05 0.94 1.03 0.87 0.85 0.59 0.47 0.46 0.51 0.44 0.36
0.00 0.00 0.00 0.00 0.00 0.00 0.01 0.02 0.01 0.01 0.01 0.04 0.08 0.05 0.02 0.04 0.21 0.35 0.18 0.04 0.02 0.06 0.04 0.08 0.12 0.16 0.19 0.18 0.14 0.18 0.24 0.18 0.18 0.31 0.85 1.11 1.17 1.14 1.23 1.68 1.72 1.50 1.31 1.31 0.97 0.75 0.62 0.50 0.48
0.00 0.02 0.06 0.13 0.05 0.02 0.05 0.05 0.03 0.00 0.01 0.09 0.12 0.03 0.05 0.19 0.50 0.19 0.17 0.10 0.09 0.12 0.12 0.17 0.17 0.20 0.21 0.19 0.28 0.22 0.19 0.17 0.15 0.19 0.28 0.80 1.36 1.42 1.15 1.26 1.78 1.82 1.67 1.57 1.47 1.51 1.42 1.12 1.04
0.02 0.03 0.24 0.36 0.09 0.07 0.06 0.02 0.01 0.01 0.04 0.09 0.13 0.09 0.16 0.30 0.32 0.22 0.20 0.15 0.16 0.15 0.19 0.34 0.34 0.27 0.27 0.27 0.32 0.32 0.21 0.22 0.25 0.21 0.24 0.25 0.69 1.32 1.96 1.59 1.42 1.62 1.42 1.76 2.00 1.99 2.10 2.16 2.15
0.12 0.08 0.08 0.32 0.09 0.09 0.01 0.00 0.00 0.01 0.03 0.06 0.09 0.13 0.28 0.31 0.31 0.40 0.37 0.22 0.17 0.17 0.25 0.38 0.35 0.23 0.29 0.35 0.34 0.37 0.39 0.34 0.33 0.35 0.47 0.49 0.67 1.09 1.98 2.69 2.44 2.28 2.47 2.09 2.34 2.49 2.30 2.31 2.21
0.11 0.10 0.19 0.32 0.29 0.17 0.01 0.01 0.02 0.03 0.03 0.02 0.08 0.21 0.56 0.46 0.40 0.63 0.68 0.44 0.25 0.19 0.33 0.46 0.39 0.34 0.35 0.48 0.50 0.53 0.47 0.53 0.48 0.59 1.08 1.47 1.08 1.38 1.50 2.14 3.04 3.26 3.14 3.18 2.91 2.83 2.44 2.31 2.12
0.16 0.27 0.23 0.36 0.29 0.36 0.21 0.02 0.03 0.07 0.08 0.08 0.26 0.43 0.52 0.81 0.71 0.81 0.92 0.74 0.45 0.31 0.37 0.47 0.54 0.52 0.58 0.69 0.75 0.76 0.87 1.17 1.21 1.22 1.79 2.09 1.74 1.88 2.51 2.36 2.35 2.73 2.77 3.32 3.40 2.93 2.65 2.41 2.12
0.07 0.18 0.23 0.80 0.51 0.22 0.24 0.08 0.01 0.07 0.09 0.14 0.46 0.68 0.70 0.83 1.02 1.14 1.05 0.78 0.62 0.51 0.38 0.29 0.49 0.79 0.70 0.79 1.01 0.96 1.10 1.56 2.03 2.21 2.37 3.12 3.51 2.82 2.86 2.74 2.09 1.93 1.95 2.21 3.07 2.93 2.40 2.22 1.92